Tracking 28052 objects as of 24-Sep-2023
HD Live streaming from Space Station
objects crossing your sky now

STARLINK-30313

Track STARLINK-30313 now!
10-day predictions
STARLINK-30313 is classified as:


NORAD ID: 57676
Int'l Code: 2023-124P
Perigee: 495.3 km
Apogee: 497.9 km
Inclination: 53.1 °
Period: 94.4 minutes
Semi major axis: 6867 km
RCS: Unknown
Launch date: August 22, 2023
Source: United States (US)
Launch site: AIR FORCE WESTERN TEST RANGE (AFWTR)
Your satellite tracking list
Your tracking list is empty




NASA's NSSDC Master Catalog

Two Line Element Set (TLE):
1 57676U 23124P   23265.11329569 -.00242984  00000-0 -97866-2 0  9996
2 57676  53.0541  53.6623 0001830 123.1678 236.9495 15.25439920  6033
Source of the keplerian elements: AFSPC